Wind_Speed
26 24 23 24 27 26 25 25 23 22 21 21 21 21 21 20 22 21 19 17 16 15 13 12 10 9 8 8 8 9 10 11 12
30 28 27 27 27 29 30 29 26 23 21 21 22 21 20 19 19 19 18 17 15 14 13 12 10 9 8 7 7 7 8 9 10
37 32 30 30 29 31 33 35 31 24 23 23 22 20 19 19 18 18 17 15 14 14 13 12 10 9 8 7 7 7 8 8 9
28 29 28 32 33 27 35 34 35 25 24 23 20 19 17 17 18 17 16 15 13 12 11 11 11 10 9 8 8 8 8 8 8
21 35 33 32 32 30 26 31 31 28 24 22 22 22 20 19 18 18 17 17 14 13 11 9 10 9 9 9 9 9 9 8 8
14 31 33 28 32 34 28 32 32 28 24 25 25 23 22 20 19 18 17 17 16 13 11 10 11 11 10 10 10 9 9 8 7
17 15 22 25 25 31 35 31 30 28 27 26 25 22 21 20 18 17 17 16 14 13 14 14 10 11 12 12 12 11 10 8 9
13 10 28 20 25 23 25 31 28 29 30 27 21 20 20 18 18 17 17 15 17 15 15 12 13 14 13 14 14 13 12 11 11
11 24 15 11 14 17 22 29 29 26 25 16 17 19 19 20 19 18 17 19 19 19 16 16 16 15 16 16 13 10 8 7 6
18 21 21 24 21 19 19 28 30 30 22 19 20 18 18 19 19 22 22 21 20 19 19 19 20 19 17 14 12 9 8 9 9
23 23 22 20 20 22 23 22 22 24 22 23 24 22 19 19 20 25 22 22 24 23 21 21 19 18 17 16 13 12 12 12 11
27 27 25 25 23 24 24 25 26 24 22 22 26 27 27 28 25 23 26 25 24 22 18 17 17 17 17 15 14 13 13 12 12
29 28 27 27 26 29 30 27 27 28 28 28 26 26 27 28 29 30 29 28 25 20 20 21 22 20 18 17 16 16 15 15 15
33 32 30 28 30 30 29 29 28 33 30 37 34 34 32 31 31 31 29 31 29 30 31 28 27 25 25 22 21 17 18 17 18
35 34 36 33 36 34 33 30 33 30 35 41 43 35 37 38 40 32 32 36 31 28 29 26 24 24 22 27 23 20 21 20 19
37 36 36 35 36 38 38 34 33 34 35 36 41 42 32 36 41 35 35 33 25 31 23 16 18 21 23 24 20 22 23 21 20
39 39 40 40 41 38 39 38 39 34 35 34 35 33 41 37 43 36 32 30 25 31 30 27 26 26 25 24 24 22 24 22 21
50 47 40 40 40 45 41 40 40 36 41 37 34 39 40 44 44 31 32 32 34 31 29 28 28 27 26 24 23 23 24 22 22
53 44 52 47 41 41 41 39 42 40 36 42 35 39 36 35 31 33 31 38 34 31 30 29 28 26 26 25 24 25 24 23 23
43 45 56 42 47 44 49 40 44 38 42 42 44 40 35 38 40 36 37 36 33 32 31 31 28 27 25 25 26 26 26 25 25
Wind_Direction
213 202 195 195 197 183 182 178 171 167 167 168 168 170 174 173 170 172 172 172 167 160 163 160 154 144 133 127 113 103 97 97 94
212 200 194 197 201 188 182 171 165 164 171 173 172 173 173 172 172 174 178 178 179 173 170 169 164 159 151 140 125 118 109 104 100
203 193 195 197 198 203 186 171 164 168 173 174 174 174 172 173 169 169 172 176 180 180 181 179 173 170 166 154 141 132 123 117 111
204 198 198 196 189 212 201 183 164 169 175 175 173 171 174 168 167 168 169 170 176 170 171 167 169 170 163 154 147 137 128 123 117
204 187 195 201 208 204 205 190 166 168 174 173 175 173 174 168 168 169 173 174 178 171 169 161 163 165 164 158 154 144 138 132 125
199 205 201 205 193 205 205 176 161 165 173 181 183 178 174 173 168 170 182 175 177 175 172 165 163 158 154 154 155 146 143 139 133
198 208 197 195 197 197 175 177 171 173 177 187 186 180 180 171 173 171 175 177 181 180 172 182 178 171 162 161 156 143 135 135 132
244 198 174 162 162 167 165 172 177 181 183 187 184 185 185 187 188 189 196 202 192 194 189 185 183 173 162 155 143 141 130 119 116
200 189 223 204 191 188 191 185 188 195 187 180 195 197 196 196 196 190 196 195 189 194 196 179 172 164 159 155 158 162 162 162 170
211 204 205 205 186 203 197 200 205 198 176 187 198 202 202 200 193 182 181 185 190 182 179 176 172 172 180 193 197 191 199 208 212
215 204 204 205 206 200 196 201 206 206 202 203 201 206 210 214 209 182 192 195 181 176 183 186 196 202 205 203 211 213 214 214 212
213 209 209 204 205 211 211 208 208 217 230 214 212 204 213 211 209 196 201 183 181 186 202 207 213 211 214 219 221 221 223 223 222
222 218 217 220 213 218 214 214 223 222 221 216 216 220 214 213 211 216 215 215 219 222 202 218 222 229 233 237 233 228 230 233 237
221 220 216 230 222 222 216 227 240 223 225 225 214 225 221 220 214 216 216 219 218 225 229 233 234 241 245 241 239 245 247 244 247
224 226 223 226 222 225 227 236 237 237 241 237 216 226 221 222 221 219 219 224 220 217 220 221 223 227 227 236 240 255 255 256 251
225 227 229 229 223 231 234 239 239 232 253 236 204 220 227 212 226 227 223 225 239 228 247 250 253 242 240 239 241 244 253 250 251
227 232 230 229 231 228 233 231 239 242 243 223 239 230 205 225 215 207 215 233 224 234 241 241 237 237 240 238 239 241 245 246 248
234 224 231 226 230 236 231 239 229 242 230 240 243 244 229 221 224 229 210 224 242 243 241 240 239 237 239 241 244 244 246 247 248
229 234 220 224 239 230 233 228 235 241 247 230 249 215 224 218 223 228 243 243 241 241 242 243 241 240 239 240 242 246 249 250 250
231 239 235 219 220 236 236 242 234 240 239 243 236 237 239 244 245 244 243 244 242 241 242 244 243 244 244 245 246 247 249 250 251
Height
3124 3128 3130 3132 3134 3137 3141 3145 3148 3152 3155 3157 3159 3161 3164 3166 3168 3170 3173 3175 3177 3180 3181 3183 3185 3186 3187 3189 3189 3190 3191 3191 3192
3121 3124 3127 3130 3132 3133 3138 3142 3146 3150 3154 3157 3158 3160 3163 3166 3169 3171 3173 3175 3178 3180 3181 3184 3185 3186 3188 3189 3190 3191 3192 3193 3193
3114 3117 3123 3127 3130 3131 3133 3136 3140 3148 3153 3156 3158 3160 3162 3165 3169 3171 3173 3176 3177 3179 3181 3183 3185 3187 3188 3190 3191 3192 3192 3193 3194
3110 3112 3119 3125 3129 3130 3133 3134 3138 3146 3151 3154 3158 3160 3162 3166 3168 3170 3173 3175 3177 3179 3181 3183 3185 3187 3188 3190 3191 3192 3193 3194 3195
3110 3112 3117 3123 3126 3129 3132 3134 3136 3144 3149 3154 3156 3158 3161 3165 3167 3169 3172 3175 3177 3179 3181 3183 3185 3186 3188 3190 3191 3192 3193 3195 3195
3107 3112 3116 3119 3123 3127 3129 3132 3137 3140 3147 3151 3153 3157 3160 3163 3166 3169 3171 3174 3176 3178 3181 3183 3184 3186 3188 3189 3191 3193 3194 3195 3196
3111 3112 3114 3117 3119 3121 3125 3130 3134 3139 3142 3148 3151 3156 3160 3163 3166 3169 3171 3173 3176 3178 3180 3182 3184 3186 3187 3189 3191 3193 3194 3195 3197
3107 3107 3111 3115 3107 3118 3124 3129 3133 3136 3139 3147 3152 3156 3159 3163 3165 3168 3171 3173 3175 3176 3179 3181 3183 3185 3187 3189 3191 3193 3195 3196 3197
3106 3111 3106 3116 3120 3121 3127 3130 3133 3137 3142 3148 3153 3155 3157 3161 3163 3166 3168 3170 3172 3175 3178 3180 3182 3185 3187 3189 3191 3193 3194 3196 3197
3104 3108 3112 3114 3116 3120 3125 3130 3133 3137 3140 3146 3150 3153 3156 3159 3162 3164 3165 3168 3170 3173 3175 3178 3180 3183 3185 3187 3189 3191 3193 3195 3197
3103 3105 3108 3112 3115 3119 3123 3128 3132 3134 3139 3143 3146 3151 3154 3157 3161 3163 3163 3165 3168 3170 3173 3175 3179 3181 3183 3185 3186 3189 3191 3193 3195
3099 3102 3105 3109 3113 3117 3122 3126 3130 3134 3136 3139 3144 3147 3151 3154 3157 3159 3163 3160 3163 3168 3171 3175 3177 3179 3181 3182 3184 3186 3188 3190 3192
3094 3098 3103 3108 3111 3115 3118 3123 3128 3131 3133 3137 3139 3143 3147 3151 3154 3156 3160 3162 3165 3166 3167 3172 3174 3176 3179 3180 3182 3184 3185 3187 3189
3090 3094 3098 3102 3107 3111 3115 3119 3123 3127 3130 3130 3134 3138 3142 3145 3149 3151 3154 3156 3159 3162 3164 3167 3170 3173 3175 3177 3179 3181 3182 3183 3185
3084 3087 3092 3097 3101 3105 3109 3114 3117 3121 3126 3125 3127 3130 3133 3139 3140 3144 3147 3151 3154 3156 3158 3161 3165 3168 3171 3173 3175 3177 3179 3180 3182
3077 3080 3084 3088 3094 3098 3103 3106 3111 3114 3118 3118 3118 3123 3126 3131 3136 3138 3140 3144 3147 3151 3154 3154 3159 3164 3165 3168 3171 3172 3174 3176 3177
3068 3073 3077 3080 3085 3090 3094 3099 3102 3106 3109 3111 3119 3119 3121 3124 3129 3132 3135 3139 3142 3145 3147 3152 3154 3156 3158 3162 3164 3166 3169 3171 3172
3057 3063 3067 3072 3077 3081 3087 3089 3094 3099 3105 3107 3110 3112 3113 3119 3122 3125 3129 3134 3138 3140 3143 3146 3149 3150 3154 3157 3159 3161 3164 3165 3167
3042 3053 3053 3060 3065 3072 3077 3082 3087 3090 3094 3097 3102 3106 3110 3109 3117 3120 3125 3129 3132 3134 3137 3140 3143 3146 3149 3151 3153 3156 3158 3160 3162
3040 3041 3044 3046 3056 3062 3068 3072 3077 3082 3087 3090 3092 3098 3101 3106 3110 3114 3120 3123 3126 3128 3131 3133 3137 3140 3142 3145 3147 3150 3152 3155 3156